When you browse on this site, cookies collect data to enhance your experience and personalize the content and advertising you see.
Visit our Privacy Policy to learn more. By continuing to use the site, you agree to this use of cookies and data.
  • In Schweiz
  • Länderverzeichnis
  • Für 7 Tage
  • Wassertemperatur
  • Wetterkarte
  • Widgets
  • user-avatar
    Anmelden

    Stündliche Wetter Quito

    Heute, 15 September, Sonntag

    Zeit Temperatur Niederschläge Wind Luftdruck Luftfeuchtigkeit
    00:00 +16°C° 0 mm 1 m/S 621 mmHg 18%
    01:00 +16°C° 0 mm 1 m/S 621 mmHg 18%
    02:00 +15°C° 0 mm 1 m/S 621 mmHg 18%
    03:00 +15°C° 0 mm 1 m/S 621 mmHg 19%
    04:00 +13°C° 0 mm 0 m/S 621 mmHg 19%
    05:00 +15°C° 0 mm 0 m/S 622 mmHg 19%
    06:00 +16°C° 0 mm 0 m/S 623 mmHg 18%
    07:00 +18°C° 0 mm 0 m/S 624 mmHg 17%
    08:00 +23°C° 0 mm 2 m/S 625 mmHg 15%
    09:00 +27°C° 0 mm 4 m/S 625 mmHg 13%
    10:00 +30°C° 0 mm 5 m/S 626 mmHg 12%
    11:00 +32°C° 0 mm 5 m/S 625 mmHg 11%
    12:00 +33°C° 0 mm 4 m/S 625 mmHg 10%
    13:00 +34°C° 0 mm 4 m/S 624 mmHg 10%
    14:00 +34°C° 0 mm 3 m/S 624 mmHg 9%
    15:00 +34°C° 0 mm 3 m/S 623 mmHg 9%
    16:00 +34°C° 0 mm 3 m/S 623 mmHg 9%
    17:00 +29°C° 0 mm 2 m/S 622 mmHg 12%
    18:00 +26°C° 0 mm 1 m/S 621 mmHg 14%
    19:00 +22°C° 0 mm 1 m/S 621 mmHg 16%
    20:00 +19°C° 0 mm 0 m/S 621 mmHg 17%
    21:00 +19°C° 0 mm 0 m/S 622 mmHg 18%
    22:00 +18°C° 0 mm 0 m/S 622 mmHg 19%
    23:00 +19°C° 0 mm 1 m/S 622 mmHg 21%

    Morgen, 16 September, Montag

    Zeit Temperatur Niederschläge Wind Luftdruck Luftfeuchtigkeit
    00:00 +18°C° 0 mm 1 m/S 621 mmHg 23%
    01:00 +16°C° 0 mm 1 m/S 621 mmHg 24%
    02:00 +16°C° 0 mm 2 m/S 621 mmHg 34%
    03:00 +16°C° 0 mm 2 m/S 621 mmHg 43%
    04:00 +16°C° 0 mm 2 m/S 621 mmHg 53%
    05:00 +17°C° 0 mm 2 m/S 622 mmHg 51%
    06:00 +19°C° 0 mm 2 m/S 623 mmHg 50%
    07:00 +20°C° 0 mm 2 m/S 624 mmHg 48%
    08:00 +25°C° 0 mm 3 m/S 624 mmHg 39%
    09:00 +29°C° 0 mm 3 m/S 625 mmHg 30%
    10:00 +33°C° 0 mm 4 m/S 626 mmHg 21%
    11:00 +34°C° 0 mm 4 m/S 625 mmHg 20%
    12:00 +34°C° 0 mm 4 m/S 625 mmHg 19%
    13:00 +34°C° 0 mm 4 m/S 624 mmHg 19%
    14:00 +34°C° 0 mm 4 m/S 624 mmHg 20%
    15:00 +33°C° 0 mm 4 m/S 623 mmHg 22%
    16:00 +31°C° 0 mm 3 m/S 623 mmHg 24%
    17:00 +28°C° 0 mm 3 m/S 622 mmHg 29%
    18:00 +26°C° 0 mm 2 m/S 622 mmHg 35%
    19:00 +23°C° 0 mm 2 m/S 622 mmHg 40%
    20:00 +21°C° 0 mm 2 m/S 622 mmHg 44%
    21:00 +20°C° 0 mm 2 m/S 622 mmHg 49%
    22:00 +19°C° 0 mm 2 m/S 622 mmHg 53%
    23:00 +19°C° 0 mm 2 m/S 622 mmHg 56%

    übermorgen, 17 September, Dienstag

    Zeit Temperatur Niederschläge Wind Luftdruck Luftfeuchtigkeit
    00:00 +19°C° 0 mm 1 m/S 621 mmHg 59%
    01:00 +18°C° 0 mm 1 m/S 621 mmHg 61%
    02:00 +18°C° 0 mm 1 m/S 621 mmHg 61%
    03:00 +18°C° 0 mm 1 m/S 621 mmHg 60%
    04:00 +18°C° 0 mm 1 m/S 621 mmHg 59%
    05:00 +19°C° 0 mm 1 m/S 622 mmHg 55%
    06:00 +20°C° 0 mm 1 m/S 623 mmHg 50%
    07:00 +21°C° 0 mm 1 m/S 624 mmHg 45%
    08:00 +25°C° 0 mm 2 m/S 624 mmHg 37%
    09:00 +28°C° 0 mm 2 m/S 625 mmHg 29%
    10:00 +33°C° 0 mm 3 m/S 626 mmHg 21%
    11:00 +34°C° 0 mm 3 m/S 625 mmHg 19%
    12:00 +34°C° 0 mm 3 m/S 625 mmHg 17%
    13:00 +35°C° 0 mm 3 m/S 624 mmHg 16%
    14:00 +35°C° 0 mm 3 m/S 624 mmHg 15%
    15:00 +35°C° 0 mm 3 m/S 623 mmHg 13%
    16:00 +35°C° 0 mm 3 m/S 623 mmHg 12%
    17:00 +30°C° 0 mm 2 m/S 622 mmHg 16%
    18:00 +27°C° 0 mm 1 m/S 621 mmHg 19%
    19:00 +22°C° 0 mm 0 m/S 621 mmHg 22%
    20:00 +21°C° 0 mm 0 m/S 621 mmHg 24%
    21:00 +22°C° 0 mm 1 m/S 621 mmHg 25%
    22:00 +21°C° 0 mm 1 m/S 622 mmHg 27%
    23:00 +20°C° 0 mm 1 m/S 621 mmHg 30%

    18 September, Mittwoch

    Zeit Temperatur Niederschläge Wind Luftdruck Luftfeuchtigkeit
    00:00 +20°C° 0 mm 1 m/S 621 mmHg 32%
    01:00 +19°C° 0 mm 1 m/S 621 mmHg 35%
    02:00 +18°C° 0 mm 1 m/S 621 mmHg 41%
    03:00 +18°C° 0 mm 1 m/S 621 mmHg 48%
    04:00 +16°C° 0 mm 2 m/S 621 mmHg 54%
    05:00 +18°C° 0 mm 1 m/S 622 mmHg 51%
    06:00 +19°C° 0 mm 1 m/S 622 mmHg 49%
    07:00 +19°C° 0 mm 0 m/S 623 mmHg 46%
    08:00 +24°C° 0 mm 2 m/S 624 mmHg 36%
    09:00 +28°C° 0 mm 4 m/S 624 mmHg 26%
    10:00 +32°C° 0 mm 5 m/S 625 mmHg 16%
    11:00 +33°C° 0 mm 5 m/S 625 mmHg 15%
    12:00 +34°C° 0 mm 4 m/S 624 mmHg 14%
    13:00 +35°C° 0 mm 3 m/S 624 mmHg 13%
    14:00 +35°C° 0 mm 3 m/S 623 mmHg 12%
    15:00 +35°C° 0 mm 3 m/S 623 mmHg 12%
    16:00 +35°C° 0 mm 3 m/S 623 mmHg 12%
    17:00 +31°C° 0 mm 2 m/S 622 mmHg 15%
    18:00 +27°C° 0 mm 1 m/S 621 mmHg 18%
    19:00 +24°C° 0 mm 1 m/S 621 mmHg 22%
    20:00 +23°C° 0 mm 1 m/S 621 mmHg 22%
    21:00 +21°C° 0 mm 0 m/S 622 mmHg 23%
    22:00 +20°C° 0 mm 0 m/S 622 mmHg 24%
    23:00 +21°C° 0 mm 1 m/S 622 mmHg 30%

    19 September, Donnerstag

    Zeit Temperatur Niederschläge Wind Luftdruck Luftfeuchtigkeit
    00:00 +20°C° 0 mm 1 m/S 622 mmHg 36%
    01:00 +18°C° 0 mm 2 m/S 621 mmHg 43%
    02:00 +17°C° 0 mm 2 m/S 621 mmHg 44%
    03:00 +16°C° 0 mm 2 m/S 621 mmHg 45%
    04:00 +15°C° 0 mm 2 m/S 621 mmHg 46%
    05:00 +16°C° 0 mm 2 m/S 622 mmHg 45%
    06:00 +18°C° 0 mm 1 m/S 622 mmHg 44%
    07:00 +19°C° 0 mm 1 m/S 623 mmHg 43%
    08:00 +24°C° 0 mm 2 m/S 624 mmHg 35%
    09:00 +29°C° 0 mm 2 m/S 625 mmHg 26%
    10:00 +34°C° 0 mm 2 m/S 626 mmHg 18%
    11:00 +35°C° 0 mm 3 m/S 625 mmHg 17%
    12:00 +35°C° 0 mm 3 m/S 625 mmHg 15%
    13:00 +36°C° 0 mm 4 m/S 624 mmHg 14%
    14:00 +36°C° 0 mm 3 m/S 624 mmHg 14%
    15:00 +36°C° 0 mm 3 m/S 623 mmHg 14%
    16:00 +35°C° 0 mm 2 m/S 622 mmHg 14%
    17:00 +31°C° 0 mm 2 m/S 622 mmHg 17%
    18:00 +28°C° 0 mm 1 m/S 621 mmHg 21%
    19:00 +24°C° 0 mm 1 m/S 621 mmHg 24%
    20:00 +23°C° 0 mm 1 m/S 621 mmHg 27%
    21:00 +23°C° 0 mm 2 m/S 622 mmHg 30%
    22:00 +21°C° 0 mm 2 m/S 622 mmHg 33%
    23:00 +19°C° 0 mm 2 m/S 622 mmHg 40%

    20 September, Freitag

    Zeit Temperatur Niederschläge Wind Luftdruck Luftfeuchtigkeit
    00:00 +18°C° 0 mm 2 m/S 621 mmHg 47%
    01:00 +17°C° 0 mm 2 m/S 621 mmHg 55%
    02:00 +17°C° 0 mm 2 m/S 621 mmHg 59%
    03:00 +16°C° 0 mm 2 m/S 621 mmHg 62%
    04:00 +15°C° 0 mm 2 m/S 621 mmHg 66%
    05:00 +17°C° 0 mm 2 m/S 622 mmHg 61%
    06:00 +18°C° 0 mm 2 m/S 623 mmHg 56%
    07:00 +19°C° 0 mm 3 m/S 624 mmHg 51%
    08:00 +25°C° 0 mm 2 m/S 625 mmHg 41%
    09:00 +29°C° 0 mm 2 m/S 626 mmHg 31%
    10:00 +34°C° 0 mm 1 m/S 627 mmHg 21%
    11:00 +35°C° 0 mm 1 m/S 626 mmHg 19%
    12:00 +37°C° 0 mm 2 m/S 625 mmHg 16%
    13:00 +38°C° 0 mm 2 m/S 625 mmHg 14%
    14:00 +36°C° 0 mm 2 m/S 624 mmHg 15%
    15:00 +35°C° 0 mm 2 m/S 623 mmHg 16%
    16:00 +34°C° 0 mm 2 m/S 622 mmHg 17%
    17:00 +31°C° 0 mm 2 m/S 622 mmHg 20%
    18:00 +29°C° 0 mm 1 m/S 622 mmHg 24%
    19:00 +26°C° 0 mm 1 m/S 622 mmHg 27%
    20:00 +25°C° 0 mm 1 m/S 622 mmHg 31%
    21:00 +23°C° 0 mm 2 m/S 622 mmHg 34%
    22:00 +21°C° 0 mm 2 m/S 622 mmHg 37%
    23:00 +20°C° 0 mm 2 m/S 621 mmHg 41%
    Mehr zeigen